Grand Canyon, AZ

6:45 AM MST on July 28, 2017 (GMT -0700)
Grand Canyon National Park

Weather History for KGCN - January, 2014

Change the Weather History Date:

Wednesday, January 22, 2014

  Actual Average Record
Temperature  
Mean Temperature 34 °F -  
Max Temperature 53 °F 43 °F 57 °F (1981)
Min Temperature 15 °F 16 °F -1 °F (1988)
Degree Days  
Heating Degree Days 31    
Moisture  
Dew Point 5 °F    
Average Humidity 41    
Maximum Humidity 62    
Minimum Humidity 11    
Precipitation  
Precipitation 0.00 in - - ()
Sea Level Pressure  
Sea Level Pressure 30.06 in    
Wind  
Wind Speed - (North)    
Max Wind Speed -    
Max Gust Speed -    
Visibility 6 miles    
Events      
Averages and records for this station are not official NWS values.
T = Trace of Precipitation, MM = Missing Value Source: NWS Daily Summary

Daily Weather History Graph

Daily Weather History Graph

Search for Another Location

Airport or City:

Trip Planner

Search our weather history database for the weather conditions in past years. The results will help you decide how hot, cold, wet, or windy it might be!

Date:

Astronomy

Jan. 22, 2014 Rise Set
Actual Time 7:35 AM MST 5:45 PM MST
Civil Twilight 7:08 AM MST 6:12 PM MST
Nautical Twilight 6:36 AM MST 6:43 PM MST
Astronomical Twilight 6:06 AM MST 7:14 PM MST
Moon No Moon Rise 10:51 AM MST (1/22)
Length of Visible Light 11h 04m
Length of Day
10h 09m
Waning Gibbous, 65% of the Moon is Illuminated
Jan 22
Waning Gibbous
Jan 23
Last Quarter
Jan 30
New
Feb 6
First Quarter
Feb 14
Full

Hourly Weather History & Observations

Time (MST) Temp. Dew Point Humidity Pressure Visibility Wind Dir Wind Speed Gust Speed Precip Events Conditions
12:54 AM 21.9 °F 9.0 °F 58% 30.21 in 10.0 mi North - - N/A   Clear
1:54 AM 23.0 °F 10.0 °F 58% 30.18 in 10.0 mi North - - N/A   Clear
2:54 AM 25.0 °F 12.0 °F 58% 30.17 in 10.0 mi North - - N/A   Clear
3:54 AM 25.0 °F 10.9 °F 55% 30.15 in 10.0 mi North - - N/A   Clear
4:54 AM 28.0 °F 12.9 °F 53% 30.13 in 10.0 mi North - - N/A   Clear
5:54 AM 28.0 °F 14.0 °F 56% 30.17 in 10.0 mi North - - N/A   Clear
6:54 AM 28.9 °F 14.0 °F 54% 30.17 in 10.0 mi North - - N/A   Clear
7:54 AM 30.0 °F 15.1 °F 54% 30.19 in 10.0 mi North - - N/A   Clear
8:54 AM 33.1 °F 15.1 °F 48% 30.15 in 10.0 mi North - - N/A   Clear
9:54 AM 39.0 °F 15.1 °F 38% 30.14 in 10.0 mi North - - N/A   Clear
10:54 AM 46.9 °F 9.0 °F 21% 30.09 in 8.0 mi North - - N/A   Smoke
11:07 AM 48.2 °F 8.6 °F 20% 30.13 in 8.0 mi North - - N/A   Smoke
11:54 AM 51.1 °F 5.0 °F 15% 30.05 in 10.0 mi North - - N/A   Smoke
12:54 PM 52.0 °F 6.1 °F 16% 30.01 in 10.0 mi North - - N/A   Smoke
1:54 PM 52.0 °F 1.9 °F 13% 29.97 in 10.0 mi North - - N/A   Smoke
2:54 PM 53.1 °F -0.9 °F 11% 29.95 in 10.0 mi North - - N/A   Smoke
3:54 PM 52.0 °F -2.0 °F 11% 29.94 in 10.0 mi North - - N/A   Smoke
4:54 PM 50.0 °F 3.0 °F 15% 29.94 in 10.0 mi North - - N/A   Smoke
5:54 PM 41.0 °F 3.0 °F 21% 29.98 in 3.0 mi North - - N/A   Smoke
6:01 PM 35.6 °F 3.2 °F 26% 30.02 in 2.0 mi North - - N/A   Smoke
6:25 PM 26.6 °F -2.2 °F 29% 30.02 in 1.2 mi North - - N/A   Smoke
6:36 PM 28.4 °F 1.4 °F 31% 30.02 in 0.5 mi North - - N/A   Smoke
6:38 PM 28.4 °F 3.2 °F 34% 30.02 in 0.2 mi North - - N/A   Smoke
6:54 PM 23.0 °F 1.9 °F 40% 30.06 in 0.2 mi North - - N/A   Smoke
7:52 PM 19.4 °F 1.4 °F 46% 30.02 in 0.5 mi North - - N/A   Smoke
7:54 PM 18.0 °F 1.0 °F 48% 30.08 in 0.5 mi North - - N/A   Smoke
8:10 PM 19.4 °F 3.2 °F 49% 30.02 in 0.2 mi North - - N/A   Smoke
8:29 PM 17.6 °F 1.4 °F 49% 30.02 in 0.5 mi North - - N/A   Smoke
8:39 PM 17.6 °F 1.4 °F 49% 30.02 in 0.2 mi North - - N/A   Smoke
8:54 PM 19.9 °F 3.9 °F 50% 30.05 in 0.5 mi North - - N/A   Smoke
8:58 PM 19.4 °F 3.2 °F 49% 30.02 in 1.2 mi North - - N/A   Smoke
9:02 PM 19.4 °F 3.2 °F 49% 30.02 in 0.8 mi North - - N/A   Smoke
9:13 PM 17.6 °F 3.2 °F 53% 30.02 in 0.2 mi North - - N/A   Smoke
9:21 PM 19.4 °F 3.2 °F 49% 30.02 in 1.0 mi North - - N/A   Smoke
9:25 PM 19.4 °F 3.2 °F 49% 30.03 in 2.5 mi North - - N/A   Smoke
9:33 PM 19.4 °F 3.2 °F 49% 30.02 in 8.0 mi North - - N/A   Smoke
9:54 PM 18.0 °F 3.0 °F 52% 30.04 in 9.0 mi North - - N/A   Smoke
10:13 PM 19.4 °F 3.2 °F 49% 30.02 in 2.5 mi North - - N/A   Smoke
10:22 PM 15.8 °F 1.4 °F 53% 30.02 in 4.0 mi North - - N/A   Smoke
10:54 PM 16.0 °F 3.0 °F 57% 30.00 in 10.0 mi North - - N/A   Smoke
11:54 PM 16.0 °F 5.0 °F 62% 29.98 in 10.0 mi North - - N/A   Smoke